When you browse on this site, cookies collect data to enhance your experience and personalize the content and advertising you see.
Visit our Privacy Policy to learn more. By continuing to use the site, you agree to this use of cookies and data.

Hourly Weather Dundee

Today, 5 August, Wednesday

Time Temperature Precipitation Wind Pressure Humidity
00:00 +15°C° 0 mm 5 mps 738 mmHg 92%
01:00 +14°C° 0 mm 5 mps 738 mmHg 92%
02:00 +14°C° 0 mm 5 mps 739 mmHg 93%
03:00 +13°C° 0 mm 5 mps 739 mmHg 93%
04:00 +13°C° 0 mm 5 mps 739 mmHg 93%
05:00 +13°C° 0 mm 5 mps 739 mmHg 93%
06:00 +13°C° 0 mm 4 mps 739 mmHg 93%
07:00 +14°C° 0 mm 5 mps 740 mmHg 90%
08:00 +16°C° 0 mm 5 mps 740 mmHg 87%
09:00 +17°C° 0 mm 5 mps 741 mmHg 84%
10:00 +18°C° 0 mm 4 mps 741 mmHg 80%
11:00 +19°C° 0 mm 4 mps 741 mmHg 77%
12:00 +20°C° 0 mm 4 mps 741 mmHg 73%
13:00 +19°C° 0.5 mm 3 mps 741 mmHg 80%
14:00 +18°C° 0.5 mm 3 mps 741 mmHg 87%
15:00 +17°C° 0.5 mm 2 mps 742 mmHg 93%
16:00 +17°C° 0.2 mm 2 mps 742 mmHg 93%
17:00 +17°C° 0.2 mm 2 mps 742 mmHg 94%
18:00 +17°C° 0.2 mm 2 mps 742 mmHg 94%
19:00 +17°C° 0.1 mm 2 mps 743 mmHg 95%
20:00 +16°C° 0.1 mm 2 mps 743 mmHg 95%
21:00 +16°C° 0.1 mm 2 mps 744 mmHg 96%
22:00 +16°C° 0 mm 2 mps 744 mmHg 96%
23:00 +15°C° 0 mm 2 mps 745 mmHg 95%

Tomorrow, 6 August, Thursday

Time Temperature Precipitation Wind Pressure Humidity
00:00 +14°C° 0 mm 3 mps 745 mmHg 95%
01:00 +13°C° 0 mm 3 mps 746 mmHg 95%
02:00 +13°C° 0 mm 3 mps 746 mmHg 95%
03:00 +12°C° 0 mm 3 mps 747 mmHg 95%
04:00 +13°C° 0 mm 2 mps 747 mmHg 94%
05:00 +13°C° 0 mm 2 mps 748 mmHg 94%
06:00 +14°C° 0 mm 2 mps 748 mmHg 93%
07:00 +15°C° 0 mm 2 mps 749 mmHg 89%
08:00 +16°C° 0 mm 2 mps 749 mmHg 84%
09:00 +17°C° 0 mm 2 mps 750 mmHg 80%
10:00 +18°C° 0 mm 2 mps 750 mmHg 75%
11:00 +19°C° 0 mm 2 mps 750 mmHg 71%
12:00 +20°C° 0 mm 2 mps 751 mmHg 66%
13:00 +21°C° 0 mm 3 mps 751 mmHg 66%
14:00 +21°C° 0 mm 3 mps 751 mmHg 66%
15:00 +22°C° 0 mm 3 mps 751 mmHg 65%
16:00 +21°C° 0 mm 3 mps 750 mmHg 71%
17:00 +20°C° 0 mm 4 mps 750 mmHg 76%
18:00 +19°C° 0 mm 4 mps 750 mmHg 81%
19:00 +18°C° 0 mm 3 mps 750 mmHg 85%
20:00 +17°C° 0 mm 3 mps 750 mmHg 89%
21:00 +16°C° 0 mm 2 mps 751 mmHg 93%
22:00 +16°C° 0 mm 2 mps 750 mmHg 92%
23:00 +16°C° 0 mm 2 mps 750 mmHg 91%

Day after tomorrow, 7 August, Friday

Time Temperature Precipitation Wind Pressure Humidity
00:00 +16°C° 0 mm 2 mps 750 mmHg 90%
01:00 +16°C° 0 mm 2 mps 750 mmHg 91%
02:00 +15°C° 0 mm 2 mps 750 mmHg 92%
03:00 +14°C° 0 mm 2 mps 750 mmHg 93%
04:00 +15°C° 0 mm 2 mps 750 mmHg 92%
05:00 +15°C° 0 mm 1 mps 750 mmHg 92%
06:00 +15°C° 0 mm 1 mps 750 mmHg 91%
07:00 +17°C° 0 mm 2 mps 751 mmHg 87%
08:00 +18°C° 0 mm 2 mps 751 mmHg 82%
09:00 +19°C° 0 mm 2 mps 751 mmHg 78%
10:00 +20°C° 0 mm 3 mps 751 mmHg 76%
11:00 +21°C° 0 mm 4 mps 751 mmHg 74%
12:00 +22°C° 0 mm 4 mps 751 mmHg 73%
13:00 +22°C° 0 mm 5 mps 751 mmHg 72%
14:00 +22°C° 0 mm 5 mps 750 mmHg 72%
15:00 +23°C° 0 mm 5 mps 750 mmHg 72%
16:00 +22°C° 0.1 mm 5 mps 750 mmHg 74%
17:00 +22°C° 0.1 mm 5 mps 749 mmHg 77%
18:00 +22°C° 0.1 mm 5 mps 749 mmHg 80%
19:00 +21°C° 0.7 mm 5 mps 749 mmHg 84%
20:00 +20°C° 0.7 mm 4 mps 749 mmHg 87%
21:00 +19°C° 0.7 mm 4 mps 749 mmHg 91%
22:00 +18°C° 0.3 mm 4 mps 749 mmHg 91%
23:00 +17°C° 0.3 mm 4 mps 750 mmHg 92%

8 August, Saturday

Time Temperature Precipitation Wind Pressure Humidity
00:00 +15°C° 0.3 mm 4 mps 750 mmHg 92%
01:00 +14°C° 0 mm 4 mps 751 mmHg 91%
02:00 +12°C° 0 mm 5 mps 752 mmHg 91%
03:00 +10°C° 0 mm 5 mps 752 mmHg 90%
04:00 +11°C° 0 mm 4 mps 753 mmHg 89%
05:00 +11°C° 0 mm 4 mps 754 mmHg 88%
06:00 +10°C° 0 mm 4 mps 755 mmHg 87%
07:00 +12°C° 0 mm 3 mps 755 mmHg 82%
08:00 +13°C° 0 mm 3 mps 756 mmHg 76%
09:00 +14°C° 0 mm 3 mps 756 mmHg 71%
10:00 +16°C° 0 mm 3 mps 757 mmHg 66%
11:00 +18°C° 0 mm 2 mps 757 mmHg 61%
12:00 +19°C° 0 mm 2 mps 757 mmHg 56%
13:00 +19°C° 0 mm 2 mps 757 mmHg 55%
14:00 +19°C° 0 mm 3 mps 758 mmHg 55%
15:00 +20°C° 0 mm 3 mps 758 mmHg 55%
16:00 +19°C° 0 mm 3 mps 758 mmHg 59%
17:00 +18°C° 0 mm 3 mps 758 mmHg 64%
18:00 +18°C° 0 mm 3 mps 758 mmHg 69%
19:00 +16°C° 0 mm 2 mps 759 mmHg 74%
20:00 +14°C° 0 mm 2 mps 759 mmHg 79%
21:00 +12°C° 0 mm 1 mps 759 mmHg 84%
22:00 +12°C° 0 mm 1 mps 759 mmHg 86%
23:00 +11°C° 0 mm 1 mps 759 mmHg 87%

9 August, Sunday

Time Temperature Precipitation Wind Pressure Humidity
00:00 +11°C° 0 mm 1 mps 759 mmHg 89%
01:00 +11°C° 0 mm 1 mps 759 mmHg 89%
02:00 +10°C° 0 mm 1 mps 759 mmHg 90%
03:00 +10°C° 0 mm 1 mps 759 mmHg 90%
04:00 +11°C° 0 mm 1 mps 759 mmHg 89%
05:00 +11°C° 0 mm 1 mps 759 mmHg 88%
06:00 +12°C° 0 mm 1 mps 759 mmHg 87%
07:00 +13°C° 0 mm 1 mps 759 mmHg 81%
08:00 +14°C° 0 mm 2 mps 759 mmHg 75%
09:00 +16°C° 0 mm 2 mps 759 mmHg 69%
10:00 +16°C° 0 mm 3 mps 759 mmHg 65%
11:00 +17°C° 0 mm 3 mps 759 mmHg 61%
12:00 +18°C° 0 mm 3 mps 758 mmHg 58%
13:00 +18°C° 0 mm 4 mps 758 mmHg 58%
14:00 +17°C° 0 mm 4 mps 758 mmHg 59%
15:00 +17°C° 0 mm 4 mps 758 mmHg 60%
16:00 +17°C° 0 mm 4 mps 757 mmHg 65%
17:00 +16°C° 0 mm 3 mps 757 mmHg 71%
18:00 +14°C° 0 mm 3 mps 757 mmHg 76%
19:00 +13°C° 0 mm 3 mps 757 mmHg 82%
20:00 +12°C° 0 mm 2 mps 757 mmHg 88%
21:00 +10°C° 0 mm 2 mps 758 mmHg 94%
22:00 +10°C° 0 mm 2 mps 757 mmHg 94%
23:00 +9°C° 0 mm 2 mps 757 mmHg 94%

10 August, Monday

Time Temperature Precipitation Wind Pressure Humidity
00:00 +10°C° 0 mm 1 mps 757 mmHg 94%
01:00 +9°C° 0 mm 2 mps 757 mmHg 94%
02:00 +9°C° 0 mm 2 mps 757 mmHg 93%
03:00 +9°C° 0 mm 2 mps 757 mmHg 93%
04:00 +10°C° 0 mm 2 mps 757 mmHg 91%
05:00 +10°C° 0 mm 2 mps 756 mmHg 89%
06:00 +12°C° 0 mm 2 mps 756 mmHg 88%
07:00 +13°C° 0 mm 2 mps 756 mmHg 84%
08:00 +13°C° 0 mm 3 mps 756 mmHg 81%
09:00 +14°C° 0 mm 3 mps 756 mmHg 77%
10:00 +15°C° 0 mm 4 mps 756 mmHg 74%
11:00 +15°C° 0 mm 4 mps 756 mmHg 71%
12:00 +17°C° 0 mm 4 mps 755 mmHg 68%
13:00 +17°C° 0 mm 4 mps 755 mmHg 68%
14:00 +17°C° 0 mm 4 mps 755 mmHg 68%
15:00 +17°C° 0 mm 4 mps 754 mmHg 69%
16:00 +15°C° 0 mm 4 mps 754 mmHg 71%
17:00 +14°C° 0 mm 3 mps 754 mmHg 74%
18:00 +14°C° 0 mm 3 mps 754 mmHg 77%
19:00 +14°C° 0 mm 2 mps 754 mmHg 81%
20:00 +13°C° 0 mm 2 mps 754 mmHg 85%
21:00 +12°C° 0 mm 1 mps 754 mmHg 88%
22:00 +12°C° 0 mm 1 mps 753 mmHg 87%
23:00 +12°C° 0 mm 1 mps 753 mmHg 87%
Show more